Temperature
15 16 16 16 16 16 16 16 16 16 16 16 16 16 16 16 16 16 16 16 16 16 16 15 15 15 15 16 16 16 15 15 15 15 15 15 15 15 15 15 15 15 15
16 16 16 16 16 16 16 16 16 16 16 16 16 16 16 16 16 15 15 15 15 15 15 15 15 15 15 15 15 16 15 15 15 15 15 15 15 15 15 15 15 15 15
15 16 16 16 16 16 16 16 16 16 16 16 16 15 15 15 15 15 15 15 15 15 15 15 15 15 15 15 15 15 15 15 15 14 14 14 14 15 15 15 15 15 15
15 15 15 15 15 15 15 15 15 15 15 15 15 15 15 15 15 15 15 15 15 15 15 15 15 15 15 15 15 15 15 15 14 14 14 14 14 14 14 14 15 15 15
14 15 15 15 15 15 15 15 15 15 15 15 15 15 15 15 15 15 15 15 15 15 15 15 15 15 15 15 15 15 15 14 14 14 14 14 14 14 14 14 14 14 14
14 14 14 15 15 15 15 15 15 15 15 15 15 15 15 15 15 15 15 15 15 15 15 15 15 15 15 15 15 15 14 14 14 14 14 14 14 14 14 14 14 14 14
14 14 14 14 15 14 15 15 15 15 15 15 15 15 15 15 15 15 14 14 15 15 15 15 15 15 15 15 15 14 14 14 14 13 13 13 14 14 14 14 14 14 14
13 14 14 14 14 14 14 14 14 14 14 15 14 14 14 14 14 14 14 14 14 14 14 14 14 14 14 14 14 14 14 14 13 13 13 13 13 13 13 14 14 14 14
13 13 13 13 14 14 14 14 14 14 14 14 14 14 14 14 14 14 14 14 14 14 14 14 14 14 14 14 14 14 14 13 13 13 13 13 13 13 13 13 13 13 13
13 13 13 13 13 13 13 13 14 14 14 14 14 14 14 14 14 14 14 14 14 14 14 14 14 14 14 14 14 13 13 13 13 13 13 13 13 13 13 13 13 13 13
12 12 12 12 12 13 13 13 13 13 13 13 13 13 13 13 13 13 13 13 13 13 13 13 13 13 13 13 13 13 13 13 13 13 13 13 13 13 13 13 13 13 13
12 12 12 12 12 12 12 12 12 13 13 13 13 13 13 13 13 13 13 13 13 13 13 13 13 13 13 13 13 13 12 12 12 12 12 12 12 12 12 12 12 12 12
11 11 11 11 12 12 12 12 12 12 12 12 12 12 12 12 12 12 13 13 13 13 13 13 13 13 13 12 12 12 12 12 12 12 12 12 12 12 12 12 12 12 12
11 11 11 11 11 11 11 11 11 12 12 12 12 12 12 12 12 12 12 12 12 12 12 12 12 12 12 12 12 12 12 12 12 12 12 12 12 11 11 11 11 11 11
11 11 11 11 11 11 11 11 11 11 11 12 12 12 12 12 12 12 12 12 12 12 12 12 12 12 12 12 12 11 11 12 11 11 11 11 11 11 11 11 11 11 11
11 10 11 11 11 11 11 11 11 11 11 11 11 11 11 11 11 11 12 12 12 12 12 12 12 12 12 11 11 11 11 11 11 11 11 11 11 11 11 11 11 10 10
10 10 10 10 10 10 10 10 10 10 10 11 11 11 11 11 11 11 11 11 11 11 11 11 11 11 11 11 11 11 11 10 10 10 10 10 10 10 10 10 10 10 10
10 10 10 10 10 10 10 10 10 10 10 10 10 10 11 11 11 11 11 11 11 11 11 11 11 11 11 11 11 10 10 10 10 10 10 10 10 10 10 10 10 10 10
10 10 10 10 10 10 10 10 10 10 10 10 10 10 10 10 10 10 11 11 11 11 11 11 11 10 10 10 10 10 10 10 10 10 9 9 9 9 10 10 10 10 10
9 9 9 9 9 9 9 9 9 9 9 10 10 10 10 10 10 10 10 10 10 10 10 10 10 10 10 10 10 10 9 9 9 9 9 9 9 9 9 9 9 9 9
9 9 9 9 9 9 9 9 9 9 9 9 9 9 10 9 10 10 10 10 10 10 10 10 10 9 9 9 9 9 9 9 9 8 8 9 9 8 9 9 9 9 9
9 9 9 9 9 9 9 9 9 9 9 9 9 9 9 9 9 9 9 9 9 9 9 9 9 9 9 8 8 8 7 8 8 8 8 8 8 8 8 8 8 8 8
8 8 8 9 9 9 8 8 8 8 8 8 8 9 9 9 9 9 9 9 9 9 9 9 9 9 8 8 8 8 7 7 7 7 7 7 7 7 7 7 7 7 7
8 8 8 8 8 8 8 8 8 8 8 8 8 8 8 8 9 9 9 9 9 9 9 9 8 8 8 8 7 7 7 7 7 6 6 7 7 7 7 7 7 7 7
8 8 8 8 8 8 8 8 8 8 8 8 8 8 8 8 8 8 8 8 8 8 8 8 8 8 8 7 7 7 7 7 7 6 5 6 6 6 6 6 6 6 6
8 8 8 8 8 8 8 8 8 7 7 7 7 8 8 8 8 8 8 8 8 8 8 8 7 7 7 7 7 7 7 7 6 6 6 5 5 6 6 6 6 6 6
Wind_Speed
7 11 11 10 9 8 8 8 8 8 8 9 8 8 8 8 8 9 9 8 8 8 9 10 9 9 10 10 11 11 10 10 10 10 10 10 10 10 10 10 11 10 11
9 12 12 10 9 8 8 8 8 8 8 8 8 8 8 8 8 8 7 8 7 7 8 9 9 9 9 9 10 9 8 7 7 7 8 8 8 8 9 11 11 9 10
9 11 11 10 9 8 8 7 7 7 7 7 8 8 8 8 8 8 7 7 7 7 8 9 9 9 9 9 8 8 6 5 4 4 5 6 8 8 9 9 10 10 9
8 10 10 10 9 8 8 8 7 7 7 7 7 7 7 7 7 7 8 7 7 8 8 8 8 8 8 8 7 6 4 3 1 1 4 7 8 9 9 9 9 9 9
7 10 10 11 9 8 7 7 7 7 6 6 7 7 7 7 7 7 7 7 8 8 8 8 8 7 7 7 6 5 3 1 1 1 5 9 9 9 9 9 8 8 8
6 9 10 10 9 8 7 7 6 6 6 6 6 7 7 7 7 7 7 7 8 8 8 8 8 7 7 6 5 4 2 2 2 2 7 9 9 8 8 7 7 7 8
6 7 8 9 9 8 7 6 6 6 6 6 6 6 6 6 6 7 6 7 7 8 8 7 7 7 6 6 4 3 2 2 3 6 8 9 8 7 7 7 6 6 7
5 6 7 9 9 8 7 6 6 5 5 5 5 5 6 6 6 7 6 6 7 7 7 7 7 7 6 5 4 2 3 3 3 6 9 9 8 7 7 7 6 6 7
4 5 6 7 8 8 7 6 6 5 5 5 5 5 5 6 6 6 7 6 6 6 6 6 6 6 5 4 3 1 2 3 3 6 7 8 8 7 6 6 7 7 7
3 3 4 5 6 7 6 6 6 6 6 6 5 6 6 6 6 6 7 7 6 6 5 5 5 5 5 4 2 0 2 3 3 7 8 7 7 7 6 6 6 7 7
1 2 4 4 4 5 6 6 6 6 6 6 6 7 7 6 6 6 7 7 5 5 5 5 4 4 4 3 2 2 2 1 6 8 7 6 6 6 6 7 7 7 7
2 2 3 4 3 4 4 5 5 5 6 6 6 6 5 5 6 6 7 6 5 4 5 5 4 5 3 3 2 2 1 3 7 7 7 7 6 6 6 6 6 6 6
3 3 3 3 4 3 3 4 4 4 4 5 6 6 5 5 6 6 5 6 5 4 4 4 4 3 3 2 2 1 2 5 7 7 6 7 6 7 7 7 6 6 7
3 3 3 3 3 3 2 2 3 2 2 3 3 5 4 3 3 4 4 4 4 3 2 2 2 2 2 2 2 2 4 5 7 7 7 7 6 6 6 6 7 6 6
3 3 2 2 3 3 2 1 2 2 2 3 3 2 3 3 2 2 3 3 3 3 2 0 0 1 1 2 3 4 4 5 7 7 6 7 6 6 5 5 5 5 6
3 3 2 2 2 2 1 1 1 2 2 3 3 2 2 2 2 2 3 3 3 3 2 1 1 1 1 2 2 3 4 5 6 6 6 6 7 6 5 4 4 4 4
3 3 3 2 3 3 2 1 1 1 2 2 2 3 3 2 2 2 2 3 3 3 3 2 1 2 2 2 2 2 3 4 4 5 5 6 6 6 5 4 4 3 4
2 3 2 2 2 2 2 1 1 2 2 2 3 3 3 3 3 2 2 2 3 3 3 2 2 2 2 2 1 1 2 2 3 4 5 5 5 5 5 4 3 3 3
3 3 3 2 2 3 2 2 2 2 2 2 3 3 3 3 3 2 1 2 3 3 2 2 2 2 2 2 1 1 1 1 1 3 4 5 4 6 5 4 3 2 3
3 3 3 3 2 3 3 2 2 1 1 2 3 3 3 3 3 3 2 2 3 3 3 2 3 2 2 2 2 1 0 0 1 2 3 4 4 4 4 3 2 1 2
3 3 3 3 3 2 2 2 2 1 1 1 2 3 4 3 3 4 2 2 2 3 4 3 3 3 2 2 2 1 1 1 2 2 3 3 2 2 3 2 2 1 0
3 3 3 3 3 3 2 2 2 2 1 1 2 3 3 3 3 4 3 3 3 3 4 3 3 3 2 2 2 2 0 1 1 2 2 2 2 2 2 2 1 1 1
3 3 3 3 3 3 2 2 2 2 2 1 1 2 2 4 3 3 3 3 3 3 3 3 3 3 4 2 2 2 2 2 1 1 2 2 2 2 2 1 1 1 1
3 3 3 3 3 3 3 3 3 3 2 1 2 2 2 3 3 3 3 3 3 2 3 3 2 2 3 3 1 0 2 2 2 1 1 1 2 2 2 2 2 2 2
3 3 3 3 3 3 3 3 3 2 1 1 2 2 2 2 3 3 3 3 2 2 2 2 2 2 2 3 2 1 1 1 1 2 2 2 1 2 2 2 2 3 2
3 3 4 3 3 3 3 3 4 3 2 2 2 3 2 2 2 2 3 3 2 2 2 2 2 2 2 2 2 2 2 2 2 2 3 3 3 2 2 2 2 3 3
Wind_Direction
103 109 111 101 98 96 96 103 104 102 107 110 108 107 106 106 103 100 98 95 95 97 99 98 99 96 91 87 83 81 79 79 81 81 78 75 71 69 63 61 67 67 69
109 113 114 104 100 98 98 104 108 106 107 110 108 107 108 105 106 103 102 101 99 100 102 99 97 94 92 90 86 85 83 83 85 88 86 82 77 73 65 61 65 67 67
104 112 113 106 102 98 98 101 109 110 109 110 110 108 108 108 105 104 103 103 102 102 102 98 96 94 90 87 88 89 87 86 85 89 92 96 89 80 72 67 68 66 65
95 109 111 109 105 100 96 97 106 112 114 114 113 111 109 110 109 106 102 100 102 101 101 100 98 95 93 89 88 92 93 83 78 61 91 92 88 83 77 73 69 66 65
86 105 112 110 107 103 98 97 104 107 112 116 117 116 113 111 109 109 106 103 101 100 100 100 98 96 94 94 93 88 82 30 298 317 85 87 86 83 77 73 68 64 66
89 100 114 114 112 109 104 101 105 109 110 115 121 118 114 109 108 108 106 104 104 102 101 99 98 96 94 96 94 87 54 345 310 56 81 87 85 80 77 73 73 69 66
91 99 119 121 120 118 113 106 106 116 116 117 125 123 121 115 109 108 108 107 108 107 105 102 101 98 93 92 91 73 17 10 25 72 75 80 85 82 77 74 76 76 68
101 104 122 129 128 127 124 115 110 119 122 119 126 131 128 122 114 109 105 111 114 114 113 110 104 100 96 91 85 59 17 10 39 83 79 76 78 83 77 74 75 77 72
100 109 124 136 134 130 130 128 123 124 128 130 128 132 136 133 126 120 109 103 113 115 117 114 110 106 103 99 91 55 352 352 21 73 79 76 76 78 78 77 76 72 68
98 119 132 138 139 134 131 134 130 130 131 134 133 133 137 135 129 124 113 102 106 118 120 120 119 119 119 119 123 214 308 334 56 78 77 79 83 79 75 77 79 76 71
121 135 139 134 135 139 143 137 134 135 139 142 147 149 153 152 137 123 116 104 102 124 136 140 143 145 141 155 181 247 286 67 79 78 77 84 91 89 81 77 77 82 77
191 167 148 140 129 131 139 140 147 149 156 161 161 165 177 145 129 129 133 124 116 141 156 169 176 167 165 175 204 245 302 86 89 78 78 87 90 87 81 79 77 76 78
187 169 147 145 142 139 134 151 150 150 160 161 169 170 149 132 135 140 142 146 147 163 171 179 189 192 177 158 165 140 48 63 82 77 80 86 89 90 84 80 74 71 69
180 166 151 147 147 139 132 145 141 136 149 146 162 163 153 146 149 144 141 152 150 147 154 183 201 186 161 138 123 90 76 74 86 80 77 87 87 90 88 84 72 67 67
179 165 150 156 155 141 136 157 134 144 151 141 139 159 157 148 162 140 131 131 127 125 140 193 91 134 101 98 91 81 78 86 94 96 87 86 89 89 88 87 82 69 57
173 157 150 171 157 140 139 147 135 138 136 127 131 142 148 142 135 146 142 136 127 127 145 155 106 92 78 78 82 83 90 92 97 107 106 93 91 91 88 84 82 72 57
167 148 154 178 154 149 146 150 106 113 128 132 134 132 113 114 118 135 152 150 134 132 137 123 93 79 77 73 70 65 74 88 104 107 112 109 103 97 94 81 70 63 54
155 140 151 182 154 158 143 133 113 108 122 137 136 132 129 126 126 128 157 160 138 128 118 141 136 110 94 83 74 52 62 81 89 96 102 105 111 108 96 86 74 59 45
152 147 149 151 156 160 141 130 120 120 125 130 132 130 137 140 141 125 154 146 127 119 118 137 122 129 123 98 89 65 36 61 102 102 98 92 106 120 118 104 86 62 32
143 145 147 148 148 144 134 123 108 110 125 131 133 137 138 139 147 132 139 152 130 131 126 127 132 126 137 132 111 79 42 195 130 131 134 113 102 119 129 130 119 89 32
124 137 142 138 139 132 138 143 141 158 174 159 150 145 139 143 153 143 148 154 148 147 149 141 140 136 133 115 88 58 336 221 166 163 150 140 127 120 119 118 106 110 43
146 149 142 146 144 139 158 164 160 150 156 163 150 141 141 148 150 151 151 156 154 152 147 143 149 142 159 142 138 140 76 316 242 186 171 173 171 148 139 126 87 62 123
141 143 151 148 144 141 146 135 126 96 86 105 128 161 153 149 148 142 144 145 150 152 155 159 161 155 174 189 166 158 165 207 276 248 204 184 172 176 171 165 180 228 213
145 141 153 148 144 141 141 143 145 141 150 175 158 154 152 142 144 152 148 143 147 150 158 168 160 162 165 182 197 168 171 158 165 260 263 225 198 201 216 212 203 217 228
140 150 156 146 143 141 143 145 139 121 118 111 119 123 134 136 137 142 137 128 136 152 165 155 149 167 169 179 182 202 229 156 178 199 250 259 265 237 218 204 203 214 225
144 153 154 148 144 141 145 143 139 132 120 113 128 143 142 140 139 137 138 137 147 153 166 167 165 175 181 179 179 182 188 197 209 209 237 247 252 255 241 222 214 218 225
Height
1513 1513 1515 1516 1517 1519 1520 1521 1522 1524 1525 1526 1527 1528 1529 1529 1530 1531 1532 1533 1534 1534 1535 1536 1536 1537 1538 1538 1539 1539 1540 1541 1541 1541 1542 1542 1542 1543 1543 1543 1543 1544 1544
1512 1513 1514 1515 1517 1518 1520 1521 1522 1523 1525 1526 1527 1528 1529 1530 1530 1531 1532 1533 1534 1534 1535 1536 1537 1537 1538 1539 1539 1540 1540 1541 1542 1542 1542 1543 1543 1543 1544 1544 1544 1544 1545
1511 1512 1514 1515 1516 1518 1519 1521 1522 1523 1524 1525 1527 1528 1529 1530 1530 1531 1532 1533 1534 1534 1535 1536 1537 1537 1538 1539 1539 1540 1541 1542 1542 1543 1543 1543 1544 1544 1544 1544 1545 1545 1545
1511 1511 1513 1514 1516 1517 1519 1520 1521 1523 1524 1525 1526 1527 1528 1529 1530 1531 1532 1533 1534 1534 1535 1536 1537 1537 1538 1539 1539 1540 1541 1542 1543 1543 1543 1544 1544 1544 1545 1545 1545 1545 1545
1510 1511 1512 1514 1515 1517 1518 1519 1520 1522 1523 1524 1525 1527 1528 1529 1530 1531 1532 1533 1533 1534 1535 1536 1536 1537 1538 1538 1539 1540 1541 1542 1543 1544 1544 1544 1545 1545 1545 1545 1545 1546 1546
1509 1511 1511 1513 1514 1516 1517 1518 1519 1521 1522 1523 1525 1526 1527 1528 1529 1530 1531 1532 1533 1534 1535 1535 1536 1537 1537 1538 1539 1540 1541 1542 1543 1544 1544 1544 1545 1545 1545 1545 1545 1546 1546
1509 1510 1511 1512 1513 1515 1516 1517 1518 1519 1521 1522 1523 1524 1526 1527 1528 1529 1530 1531 1532 1533 1534 1535 1536 1536 1537 1538 1539 1540 1541 1542 1543 1544 1544 1544 1544 1545 1545 1545 1545 1545 1545
1508 1508 1510 1511 1512 1514 1515 1516 1517 1518 1519 1521 1522 1523 1525 1526 1527 1528 1529 1530 1531 1532 1533 1534 1535 1536 1537 1538 1539 1540 1541 1542 1543 1543 1544 1544 1544 1544 1544 1545 1545 1545 1545
1507 1507 1509 1510 1511 1512 1513 1514 1516 1517 1518 1519 1521 1522 1523 1525 1526 1527 1528 1529 1530 1531 1533 1534 1535 1535 1536 1538 1539 1540 1541 1542 1542 1542 1543 1543 1544 1544 1544 1544 1544 1544 1544
1506 1506 1507 1508 1509 1510 1511 1513 1514 1515 1517 1518 1519 1520 1522 1523 1524 1526 1527 1528 1529 1530 1532 1533 1534 1535 1536 1537 1538 1539 1540 1541 1541 1542 1542 1543 1543 1543 1543 1544 1544 1544 1544
1504 1505 1505 1506 1507 1508 1509 1511 1512 1513 1515 1516 1517 1519 1520 1522 1523 1524 1526 1527 1528 1529 1530 1532 1533 1534 1535 1536 1538 1539 1540 1540 1540 1541 1541 1542 1542 1542 1543 1543 1543 1543 1543
1502 1503 1504 1504 1505 1506 1508 1509 1510 1511 1513 1514 1515 1517 1518 1520 1521 1523 1524 1525 1526 1528 1529 1530 1532 1533 1534 1535 1537 1538 1538 1539 1539 1540 1540 1541 1541 1541 1542 1542 1542 1542 1542
1500 1501 1502 1502 1503 1504 1505 1506 1508 1509 1510 1512 1513 1515 1517 1518 1519 1521 1522 1523 1525 1526 1527 1529 1530 1532 1533 1534 1536 1536 1537 1538 1538 1539 1539 1540 1540 1540 1540 1540 1541 1541 1541
1498 1499 1500 1500 1501 1502 1503 1504 1506 1507 1508 1509 1511 1513 1514 1516 1517 1518 1520 1521 1523 1524 1526 1527 1529 1530 1532 1533 1534 1535 1536 1536 1536 1537 1538 1538 1539 1539 1539 1539 1539 1539 1539
1495 1496 1497 1498 1499 1500 1501 1502 1503 1505 1506 1507 1509 1510 1512 1513 1515 1516 1517 1519 1521 1522 1524 1525 1527 1528 1530 1531 1533 1533 1534 1534 1535 1535 1536 1536 1537 1537 1537 1538 1538 1538 1538
1493 1493 1494 1496 1497 1498 1498 1500 1501 1502 1503 1505 1506 1508 1510 1511 1512 1514 1515 1517 1519 1520 1522 1523 1525 1526 1528 1529 1531 1531 1532 1532 1533 1533 1534 1534 1535 1535 1536 1536 1536 1536 1536
1490 1491 1492 1493 1494 1495 1496 1497 1498 1499 1501 1502 1503 1505 1507 1509 1510 1512 1513 1514 1516 1518 1520 1521 1523 1525 1526 1527 1528 1529 1530 1531 1531 1532 1532 1533 1533 1533 1534 1534 1534 1534 1534
1487 1488 1489 1490 1491 1492 1493 1494 1495 1497 1498 1499 1501 1502 1504 1506 1508 1509 1511 1512 1513 1515 1517 1519 1521 1522 1524 1525 1526 1527 1528 1529 1529 1530 1530 1531 1531 1531 1532 1532 1532 1532 1532
1484 1485 1486 1487 1488 1489 1490 1492 1493 1494 1495 1496 1498 1500 1502 1504 1505 1507 1508 1509 1511 1512 1514 1516 1518 1520 1521 1523 1524 1525 1525 1526 1527 1528 1528 1529 1529 1529 1529 1529 1530 1530 1529
1482 1483 1483 1485 1486 1486 1487 1489 1490 1491 1492 1493 1495 1497 1499 1501 1503 1504 1505 1507 1508 1509 1511 1513 1516 1517 1519 1520 1521 1522 1523 1524 1525 1525 1526 1527 1527 1527 1527 1527 1527 1527 1527
1479 1480 1481 1482 1483 1484 1484 1485 1486 1488 1489 1490 1493 1495 1497 1498 1500 1501 1503 1505 1505 1507 1509 1511 1513 1515 1516 1518 1519 1519 1521 1521 1522 1523 1524 1524 1525 1525 1525 1524 1524 1524 1524
1477 1477 1478 1479 1480 1481 1482 1484 1485 1486 1487 1488 1490 1492 1494 1496 1497 1499 1500 1502 1503 1504 1506 1508 1510 1512 1514 1515 1516 1517 1518 1520 1519 1520 1521 1521 1522 1522 1522 1522 1522 1521 1521
1474 1475 1476 1477 1479 1480 1481 1481 1482 1483 1484 1486 1488 1490 1492 1493 1495 1497 1498 1500 1501 1502 1503 1505 1506 1508 1510 1513 1515 1516 1516 1516 1517 1518 1518 1518 1519 1519 1519 1519 1519 1519 1518
1472 1473 1474 1476 1477 1478 1478 1479 1480 1480 1482 1484 1485 1487 1489 1491 1493 1494 1496 1497 1499 1500 1502 1503 1505 1507 1508 1510 1512 1513 1514 1514 1515 1514 1514 1515 1515 1516 1516 1516 1516 1515 1515
1470 1471 1473 1474 1475 1476 1476 1478 1478 1479 1480 1482 1483 1485 1487 1488 1490 1492 1493 1495 1496 1498 1499 1500 1502 1504 1506 1507 1508 1510 1511 1511 1512 1512 1510 1511 1512 1512 1513 1513 1512 1512 1512
1469 1470 1470 1471 1472 1474 1475 1476 1477 1477 1479 1480 1480 1482 1484 1486 1488 1489 1491 1492 1494 1496 1497 1498 1500 1501 1503 1504 1505 1507 1508 1508 1508 1509 1508 1507 1508 1508 1509 1509 1509 1508 1508